Regional Weather Roundup
Issued by NWS Bismarck, ND

Home | Current Version | Previous Version | Text Only | Print | Product List | Glossary On
Versions: 1 2 3 4 5 6 7 8 9 10 11 12 13 14 15 16 17 18 19 20 21 22 23 24 25 26 27 28 29 30 31 32 33 34 35 36 37 38 39 40 41 42 43 44 45 46 47 48 49 50
199
ASUS43 KBIS 271810
RWRBIS

NWR BROADCAST TEXT
NATIONAL WEATHER SERVICE BISMARCK ND
100 PM CDT TUE SEP 27 2016

NOTE: "FAIR" INDICATES FEW OR NO CLOUDS BELOW 12,000 FEET WITH NO
SIGNIFICANT WEATHER AND/OR OBSTRUCTIONS TO VISIBILITY.


CITY           SKY/WX    TMP DP  RH WIND       PRES   REMARKS
WILLISTON      SUNNY     67  49  52 VRB5      29.96F
MINOT          SUNNY     65  38  36 VRB6      29.96F
MINOT AFB      SUNNY     64  38  37 N3        29.96F
BISMARCK       SUNNY     66  40  38 NW5       29.98F
DICKINSON      SUNNY     70  45  40 W7        29.97F
GARRISON         N/A     67  40  37 VRB3      29.97F
HETTINGER ARPT SUNNY     74  47  38 W7        30.00F
JAMESTOWN      SUNNY     63  30  28 N17G25    29.93F
BEACH          FAIR      73  50  43 SW9       30.01F
CARRINGTON     FAIR      64  27  24 NW17      29.97F HAZE
HAZEN          FAIR      64  37  36 CALM      30.00F
LINTON         FAIR      68  43  40 W7        29.99F
MANDAN         FAIR      64  37  36 N7        29.99F
RUGBY          FAIR      63  36  36 NW13      29.96F
STANLEY        FAIR      68  41  37 VRB6      29.99F
WATFORD CITY   FAIR      70  46  43 CALM      29.96F
$$

CITY           SKY/WX    TMP DP  RH WIND       PRES   REMARKS
GRAND FORKS    MOSUNNY   56  43  61 NW16G25   29.90F
GRAND FORKS AF SUNNY     57  43  59 N16       29.89F
DEVILS LAKE    SUNNY     59  37  44 NW15      29.94F
FARGO          SUNNY     61  40  45 NW20      29.88F
CANDO          FAIR      63  32  31 NW16      29.96F
CAVALIER       MOCLDY    54  43  66 NW17G23   29.92S
GRAFTON        FAIR      54  45  71 NW17G25   29.93R
GWINNER        FAIR      64  36  34 NW14      29.92F
LANGDON        FAIR      57  43  58 NW14      29.93S
ROLLA          FAIR      59  28  31 NW15G22   29.96F
WALHALLA       FAIR      54  50  87 N15G23    29.92F
$$

CITY           SKY/WX    TMP DP  RH WIND       PRES   REMARKS
ABERDEEN       SUNNY     71  36  27 NW16      29.94F
MOBRIDGE       SUNNY     70  42  36 NW7       29.95F
BUFFALO          N/A     76  47  35 NW10      29.95F
RAPID CITY     SUNNY     79  42  26 VRB7      30.04F
GLASGOW        SUNNY     69  49  48 W5        29.95F
SIDNEY         SUNNY     67  52  58 S7        29.95F
WOLF POINT     SUNNY     67  51  56 SW5       29.95F
GLENDIVE       SUNNY     67  53  61 S10       29.97F
MILES CITY     SUNNY     71  51  49 SW7       30.01F
BAKER          SUNNY     71  49  45 W12       30.01F
$$

CITY           SKY/WX    TMP DP  RH WIND       PRES   REMARKS
BILLINGS       SUNNY     74  47  38 SW15      30.08F
GREAT FALLS    SUNNY     78  41  26 SW21G28   30.03F
REGINA         SUNNY     70  45  40 SE14G22   29.90F
ESTEVAN        MOSUNNY   70  43  37 SE6       29.95F
$$





USA.gov is the U.S. government's official web portal to all federal, state and local government web resources and services.